sat.trackr.live / text

‹ back to catalog

STARLINK-30421

NORAD 58107 · 2023-161L

PAYLOAD ACTIVE UNKNOWN

§ Identity

Operator
Country
US
Launch date
2023-10-21
Launch site
AFWTR
Launch vehicle
Mass (kg)
RCS (m²)

Purposes: comms

External: N2YO · Heavens-Above · Gunter

§ Orbital elements

Epoch: 2026-05-24T12:44:13.073568Z

Period
93.85 min
Inclination
53.1603°
Eccentricity
0.0001300
Mean motion
15.34399525 rev/d
Perigee alt
461.8 km
Apogee alt
463.6 km
Semi-major
6,840.8 km
B*
-1.5849e-5
RAAN
159.5515°
Arg perigee
85.6695°
Mean anomaly
274.4456°
Rev number
14,622

§ Raw data

STARLINK-304211 58107U 23161L   26144.53070687 -.00000912  00000+0 -15849-4 0  99912 58107  53.1603 159.5515 0001300  85.6695 274.4456 15.34399525146228

JSON: /api/v1/satellites/58107 · /tle

For live sub-satellite position, see the globe view (requires WebGL).

§ Visibility from observer

Set your observer location to see the next 7 days of passes ≥ 10°. The values pass through the URL so the page stays shareable.

No JS? Fill the form by hand. The geolocation button needs JavaScript.